Weather History for Maun, Botswana

Change the Weather History Date:

Wednesday, July 10, 2013

  Actual Average Record
Temperature  
Mean Temperature 64 °F -  
Max Temperature 79 °F 78 °F 82 °F (1998)
Min Temperature 50 °F 50 °F 39 °F (2014)
Growing Degree Days 14 (Base 50)    
Moisture  
Dew Point 36 °F    
Average Humidity 35    
Maximum Humidity 67    
Minimum Humidity 12    
Precipitation  
Precipitation 0.00 in - - ()
Sea Level Pressure  
Sea Level Pressure 30.24 in    
Wind  
Wind Speed 6 mph ()    
Max Wind Speed 16 mph    
Max Gust Speed -    
Visibility 6.0 miles    
Events      
Averages and records for this station are not official NWS values.
T = Trace of Precipitation, MM = Missing Value Source: Averaged Metar Reports

Daily Weather History Graph

Daily Weather History Graph

Search for Another Location

Airport:

Trip Planner

Search our weather history database for the weather conditions in past years. The results will help you decide how hot, cold, wet, or windy it might be!

Date:

Astronomy

Jul. 10, 2013 Rise Set
Actual Time 7:01 AM CAT 6:01 PM CAT
Civil Twilight 6:38 AM CAT 6:25 PM CAT
Nautical Twilight 6:10 AM CAT 6:52 PM CAT
Astronomical Twilight 5:43 AM CAT 7:19 PM CAT
Moon 8:15 AM CAT (7/10) 8:00 PM CAT (7/10)
Length of Visible Light 11h 47m
Length of Day
10h 59m
Waxing Crescent, 4% of the Moon is Illuminated
Jul 10
Waxing Crescent
Jul 16
First Quarter
Jul 22
Full
Jul 29
Last Quarter
Aug 6
New

Hourly Weather History & Observations

Time (CAT) Temp. Dew Point Humidity Pressure Visibility Wind Dir Wind Speed Gust Speed Precip Events Conditions
12:00 AM 59.0 °F 35.6 °F 42% 30.27 in - Variable 2.3 mph - N/A   Clear
2:00 AM 54 °F 35 °F 37%  in 6 mi SE 1.2 mph - -   Partly Cloudy
2:00 AM 53.6 °F 35.6 °F 51% 30.24 in - Variable 1.2 mph - N/A   Clear
3:00 AM 51.8 °F 35.6 °F 54% 30.24 in - Calm Calm - N/A   Clear
4:00 AM 51.8 °F 41.0 °F 67% 30.24 in - SE 3.5 mph - N/A   Clear
5:00 AM 51.8 °F 33.8 °F 50% 30.24 in - ESE 5.8 mph - N/A   Clear
7:00 AM 50.0 °F 33.8 °F 54% 30.27 in - East 6.9 mph - N/A   Clear
8:00 AM 53.6 °F 35.6 °F 51% 30.27 in - East 6.9 mph - N/A   Clear
9:00 AM 60.8 °F 35.6 °F 39% 30.30 in - ENE 9.2 mph - N/A   Clear
10:00 AM 68.0 °F 37.4 °F 33% 30.30 in - ENE 9.2 mph - N/A   Clear
11:00 AM 73.4 °F 35.6 °F 25% 30.30 in - NE 11.5 mph - N/A   Clear
12:00 PM 75.2 °F 35.6 °F 24% 30.27 in - NE 9.2 mph - N/A   Clear
1:00 PM 77.0 °F 35.6 °F 22% 30.24 in - East 10.4 mph - N/A   Clear
2:00 PM 79 °F 35 °F 12%  in 6 mi East 16.1 mph - -   Haze
2:00 PM 78.8 °F 35.6 °F 21% 30.21 in - East 16.1 mph - N/A   Clear
3:00 PM 78.8 °F 33.8 °F 20% 30.18 in - ESE 12.7 mph - N/A   Clear
4:00 PM 78.8 °F 33.8 °F 20% 30.18 in - East 12.7 mph - N/A   Clear
6:00 PM 75.2 °F 35.6 °F 24% 30.18 in - East 9.2 mph - N/A   Clear
7:00 PM 71.6 °F 35.6 °F 27% 30.21 in - ESE 8.1 mph - N/A   Clear
8:00 PM 68 °F 36 °F 20%  in 6 mi ESE 9.2 mph - -   Partly Cloudy
8:00 PM 68.0 °F 35.6 °F 30% 30.24 in - ESE 9.2 mph - N/A   Clear
9:00 PM 60.8 °F 37.4 °F 42% 30.24 in - ESE 9.2 mph - N/A   Clear
10:00 PM 64.4 °F 37.4 °F 37% 30.27 in - ESE 6.9 mph - N/A   Clear